This is the latest recevied weather packets stored in our database for station/object DM8MH-13. If no packets are shown the sender has not sent any weather packets the latest 10 day(s).
| Time | Temp. | Humidity | Pressure | Rain* | Wind** | Luminosity | Snow |
|---|---|---|---|---|---|---|---|
| 1777539072 | 13.33° C | 38% | 1032.2 hPa | 0 mm | - | 654 W/m² | - |
| 1777538472 | 12.78° C | 38% | 1032.1 hPa | 0 mm | - | 627 W/m² | - |
| 1777537871 | 12.78° C | 36% | 1032.2 hPa | 0 mm | - | 569 W/m² | - |
| 1777537272 | 12.78° C | 36% | 1032.3 hPa | 0 mm | - | 507 W/m² | - |
| 1777536671 | 12.22° C | 39% | 1032.3 hPa | 0 mm | - | 457 W/m² | - |
| 1777536071 | 11.67° C | 40% | 1032.2 hPa | 0 mm | - | 455 W/m² | - |
| 1777535471 | 12.22° C | 40% | 1032.3 hPa | 0 mm | - | 473 W/m² | - |
| 1777534872 | 11.67° C | 41% | 1032.2 hPa | 0 mm | - | 487 W/m² | - |
| 1777534271 | 11.67° C | 39% | 1032.3 hPa | 0 mm | - | 428 W/m² | - |
| 1777533671 | 12.22° C | 40% | 1032.2 hPa | 0 mm | - | 377 W/m² | - |
| 1777533071 | 11.11° C | 51% | 1032.3 hPa | 0 mm | - | 396 W/m² | - |
| 1777532477 | 10.56° C | 53% | 1032.2 hPa | 0 mm | - | 420 W/m² | - |
| 1777531872 | 9.44° C | 56% | 1032.2 hPa | 0 mm | - | 400 W/m² | - |
| 1777531272 | 8.89° C | 58% | 1032.2 hPa | 0 mm | - | 203 W/m² | - |
| 1777530671 | 8.33° C | 58% | 1032.2 hPa | 0 mm | - | 344 W/m² | - |
| 1777530072 | 7.78° C | 60% | 1032.2 hPa | 0 mm | - | 323 W/m² | - |
| 1777529471 | 7.22° C | 64% | 1032.3 hPa | 0 mm | - | 291 W/m² | - |
| 1777528872 | 6.67° C | 66% | 1032.2 hPa | 0 mm | - | 269 W/m² | - |
| 1777528271 | 6.11° C | 66% | 1032 hPa | 0 mm | - | 245 W/m² | - |
| 1777527671 | 5.56° C | 69% | 1031.8 hPa | 0 mm | - | 215 W/m² | - |
| 1777527071 | 4.44° C | 71% | 1031.8 hPa | 0 mm | - | 193 W/m² | - |
| 1777526473 | 3.89° C | 75% | 1031.8 hPa | 0 mm | - | 167 W/m² | - |
| 1777525872 | 2.78° C | 77% | 1031.7 hPa | 0 mm | - | 131 W/m² | - |
| 1777524678 | 1.67° C | 78% | 1031.4 hPa | 0 mm | - | 84 W/m² | - |
| 1777524071 | 1.11° C | 77% | 1031.4 hPa | 0 mm | - | 52 W/m² | - |
* Rain latest hour (hover to see other rain measurements)
** Current wind speed in m/s (hover to see current wind gust speed)